Weather History for Gallup, NM

Change the Weather History Date:

Thursday, August 29, 2013

  Actual Average Record
Temperature  
Mean Temperature 71 °F -  
Max Temperature 81 °F 81 °F 91 °F (2011)
Min Temperature 62 °F 48 °F 43 °F (1992)
Cooling Degree Days 6    
Growing Degree Days 21 (Base 50)    
Moisture  
Dew Point 55 °F    
Average Humidity 62    
Maximum Humidity 84    
Minimum Humidity 38    
Precipitation  
Precipitation 0.00 in - - ()
Sea Level Pressure  
Sea Level Pressure 29.90 in    
Wind  
Wind Speed 3 mph (SSW)    
Max Wind Speed 14 mph    
Max Gust Speed -    
Visibility 10 miles    
Events Rain , Thunderstorm    
Averages and records for this station are not official NWS values.
T = Trace of Precipitation, MM = Missing Value Source: NWS Daily Summary

Daily Weather History Graph

Daily Weather History Graph

Search for Another Location

Airport:

Trip Planner

Search our weather history database for the weather conditions in past years. The results will help you decide how hot, cold, wet, or windy it might be!

Date:

Astronomy

Aug. 29, 2013 Rise Set
Actual Time 6:45 AM MDT 7:45 PM MDT
Civil Twilight 6:19 AM MDT 8:12 PM MDT
Nautical Twilight 5:48 AM MDT 8:43 PM MDT
Astronomical Twilight 5:15 AM MDT 9:15 PM MDT
Moon 12:45 AM MDT (8/29) 3:11 PM MDT (8/29)
Length of Visible Light 13h 52m
Length of Day
13h 00m
Last Quarter, 37% of the Moon is Illuminated
Aug 29
Last Quarter
Sep 5
New
Sep 12
First Quarter
Sep 19
Full
Sep 26
Last Quarter

Hourly Weather History & Observations

Time (MDT) Temp. Heat Index Dew Point Humidity Pressure Visibility Wind Dir Wind Speed Gust Speed Precip Events Conditions
12:53 AM 64.9 °F - 53.1 °F 65% 29.81 in 10.0 mi Calm Calm - N/A   Mostly Cloudy
1:53 AM 63.0 °F - 53.1 °F 70% 29.82 in 10.0 mi Calm Calm - N/A   Scattered Clouds
2:53 AM 63.0 °F - 53.1 °F 70% 29.80 in 10.0 mi Calm Calm - N/A   Clear
3:53 AM 63.0 °F - 55.0 °F 75% 29.78 in 10.0 mi Calm Calm - N/A   Overcast
4:53 AM 62.1 °F - 55.0 °F 78% 29.77 in 10.0 mi Calm Calm - N/A   Overcast
5:53 AM 63.0 °F - 54.0 °F 72% 29.81 in 10.0 mi Calm Calm - N/A   Clear
6:53 AM 62.1 °F - 53.1 °F 72% 29.84 in 10.0 mi Calm Calm - N/A   Scattered Clouds
7:53 AM 63.0 °F - 55.0 °F 75% 29.88 in 10.0 mi Calm Calm - N/A   Overcast
8:53 AM 66.0 °F - 53.1 °F 63% 29.88 in 10.0 mi WSW 4.6 mph - N/A   Mostly Cloudy
9:53 AM 69.1 °F - 53.1 °F 57% 29.88 in 10.0 mi SW 4.6 mph - N/A   Mostly Cloudy
10:53 AM 72.0 °F - 54.0 °F 53% 29.87 in 10.0 mi Variable 4.6 mph - N/A   Scattered Clouds
11:53 AM 73.9 °F - 53.1 °F 48% 29.86 in 10.0 mi Calm Calm - N/A   Overcast
12:53 PM 80.1 °F - 52.0 °F 38% 29.83 in 10.0 mi ENE 4.6 mph - N/A   Scattered Clouds
1:53 PM 80.1 °F 79.9 °F 53.1 °F 39% 29.82 in 10.0 mi WNW 6.9 mph - N/A   Mostly Cloudy
2:21 PM 78.8 °F - 51.8 °F 39% 30.32 in 10.0 mi Variable 3.5 mph - N/A Thunderstorm Thunderstorm
2:36 PM 78.8 °F - 51.8 °F 39% 30.32 in 10.0 mi SSE 5.8 mph - N/A Thunderstorm Mostly Cloudy
2:53 PM 75.9 °F - 55.0 °F 48% 29.83 in 10.0 mi South 10.4 mph - 0.00 in Rain , Thunderstorm Light Thunderstorms and Rain
3:39 PM 68.0 °F - 55.4 °F 64% 30.31 in 10.0 mi SSW 13.8 mph - 0.00 in   Mostly Cloudy
3:53 PM 68.0 °F - 55.9 °F 65% 29.88 in 10.0 mi South 8.1 mph - 0.00 in   Mostly Cloudy
4:53 PM 70.0 °F - 55.9 °F 61% 29.87 in 10.0 mi SSW 10.4 mph - 0.00 in   Partly Cloudy
5:53 PM 72.0 °F - 57.0 °F 59% 29.85 in 10.0 mi ESE 4.6 mph - N/A   Clear
6:53 PM 73.0 °F - 55.9 °F 55% 29.85 in 10.0 mi SW 6.9 mph - 0.00 in Rain Light Rain
7:53 PM 71.1 °F - 57.0 °F 61% 29.87 in 10.0 mi SSW 4.6 mph - 0.00 in   Mostly Cloudy
8:53 PM 69.1 °F - 57.9 °F 68% 29.88 in 10.0 mi SW 8.1 mph - N/A   Overcast
9:53 PM 64.9 °F - 57.0 °F 75% 29.89 in 10.0 mi Calm Calm - N/A   Clear
10:53 PM 64.9 °F - 57.9 °F 78% 29.89 in 10.0 mi Variable 3.5 mph - N/A   Scattered Clouds
11:53 PM 63.0 °F - 57.9 °F 84% 29.89 in 10.0 mi Calm Calm - N/A   Mostly Cloudy